SCP
-0 -0 0 -0 0 0 -0 0 -0 0 0 0 -0 -0 -0 -0 0 0 -0 -0 -0 -0 -0 -0 -0 0 0 0 0 0 0 0 0 0 0 0 0 0 0 0 0 0 0 0 0 0 0 0 0
-0 -0 -0 0 0 0 0 0 0 0 0 -0 0 0 0 0 0 -0 -0 0 -0 0 0 0 0 0 0 0 0 0 0 0 0 0 0 0 0 0 0 0 0 0 0 0 0 0 0 0 0
0 -0 -0 0 0 0 0 0 0 0 0 0 0 0 0 0 0 -0 0 0 0 0 0 0 0 0 0 0 0 0 0 0 0 0 0 0 0 0 0 0 0 0 0 0 0 -0 -0 0 0
0 -0 -0 0 0 0 0 0 -0 0 0 0 0 0 0 0 0 0 0 0 0 0 0 0 0 0 0 0 0 0 0 0 0 0 0 0 0 0 0 0 0 0 0 -0 -0 -0 -0 -0 -0
0 -0 0 0 0 0 0 0 0 0 0 0 0 0 0 0 0 0 0 0 0 0 0 0 0 0 0 0 0 0 0 0 0 0 0 0 0 0 0 0 0 0 -0 -0 -0 -0 -0 -0 -0
0 0 0 0 0 0 0 0 0 0 0 0 0 0 0 0 0 0 0 0 0 0 0 0 0 0 0 0 0 0 0 0 0 0 0 0 0 0 0 0 0 0 -0 -0 -0 -0 -0 -0 -0
0 0 0 -0 0 0 0 0 0 0 0 0 0 0 0 0 0 0 0 0 0 0 0 0 0 0 0 0 0 0 0 0 0 0 0 0 0 0 0 0 0 -0 -0 -0 -0 -0 -0 -0 -0
-0 0 -0 -0 0 0 0 0 0 0 0 0 0 0 0 0 0 0 0 0 0 0 0 0 0 0 0 0 0 0 0 0 0 0 0 0 0 0 0 0 0 -0 0 0 0 -0 -0 0 0
0 0 0 0 0 0 0 0 0 0 0 0 0 0 0 0 0 0 0 0 0 0 0 0 0 0 0 0 0 0 0 0 0 0 0 0 0 0 0 0 0 0 0 0 0 -0 -0 0 0
0 0 0 0 0 0 0 0 0 0 0 0 0 0 0 0 0 0 0 0 0 0 0 0 0 0 0 0 0 0 0 0 0 0 0 0 0 0 0 0 0 0 0 0 0 0 0 0 0
0 0 0 0 0 0 0 0 0 0 0 0 0 0 0 0 0 0 0 0 0 0 0 0 0 0 0 0 0 0 0 0 0 0 0 0 0 0 0 0 0 0 0 0 0 0 0 0 0
0 0 0 0 0 0 0 0 0 0 0 0 0 0 0 0 0 0 0 0 0 0 0 0 0 0 0 0 0 0 0 0 0 0 0 0 0 0 0 0 0 0 0 0 0 0 0 0 0
0 0 0 0 0 0 0 0 0 0 0 0 0 0 0 0 0 0 0 0 0 0 0 0 0 0 0 0 0 0 0 0 0 0 0 0 0 0 0 0 0 0 0 0 0 0 0 0 0
0 0 0 0 0 0 0 0 0 0 0 0 0 0 0 0 0 0 0 0 0 0 0 0 0 0 0 0 0 0 0 0 0 0 0 0 0 0 0 0 0 0 0 0 0 0 0 0 0
0 0 0 0 0 0 0 0 -0 0 0 0 0 0 0 0 0 0 0 0 0 0 0 0 0 0 0 0 0 0 0 0 0 0 0 0 0 0 0 0 0 0 0 0 0 0 0 0 0
0 0 0 0 0 0 0 0 0 0 0 0 0 0 0 0 0 0 0 0 0 0 0 0 0 0 0 0 0 0 0 0 0 0 0 0 0 0 0 0 0 0 0 0 0 0 0 0 0
0 0 0 0 0 0 0 0 0 0 0 0 0 0 0 0 0 0 0 0 0 0 0 0 0 0 0 0 0 0 0 0 0 0 0 0 0 0 0 0 0 0 0 0 0 0 0 0 0
0 0 0 0 0 0 0 0 0 0 0 0 0 0 0 0 0 0 0 0 0 0 0 0 0 0 0 0 0 0 0 0 0 0 0 0 0 0 0 0 0 0 0 0 0 0 0 0 0
0 0 0 0 0 0 0 0 0 0 0 0 0 0 0 0 0 0 0 0 0 0 0 0 0 0 0 0 0 0 0 0 0 0 0 0 0 0 0 0 0 0 0 0 0 0 0 0 0
0 0 0 0 0 0 0 0 -0 0 0 0 0 0 0 0 0 0 0 0 0 0 0 0 0 0 0 0 0 0 0 0 0 0 0 0 0 0 0 0 0 0 0 0 0 0 0 0 0
0 0 0 0 0 0 0 -0 0 0 0 0 0 0 0 0 0 0 0 0 0 0 0 0 0 0 0 0 0 0 0 0 0 0 0 0 0 0 0 0 0 0 0 0 0 0 0 0 0
0 0 0 0 0 0 0 -0 0 0 0 0 0 0 0 0 0 0 0 0 0 0 0 0 0 0 0 0 0 0 0 0 0 0 0 0 0 0 0 0 0 0 0 0 0 0 0 0 0
0 0 0 0 0 0 0 0 0 0 0 0 0 0 0 0 0 0 0 0 0 0 0 0 0 0 0 0 0 0 0 0 0 0 0 0 0 0 0 0 0 0 0 0 0 0 0 0 0
0 0 0 0 0 0 0 0 0 0 0 0 0 0 0 0 0 0 0 0 0 0 0 0 0 0 0 0 0 0 0 0 0 0 0 0 0 0 0 0 0 0 0 0 0 0 0 0 0
0 0 0 0 0 0 0 0 0 0 0 0 0 0 0 0 0 0 0 0 0 0 0 0 0 0 0 0 0 0 0 0 0 0 0 0 0 0 0 0 0 0 0 0 0 0 0 0 0
0 0 0 0 0 0 0 0 0 0 0 0 0 0 0 0 0 0 0 0 0 0 0 0 0 0 0 0 0 0 0 0 0 0 0 0 0 0 0 0 0 0 0 0 0 0 0 0 0
0 0 0 0 0 0 0 0 0 0 0 0 0 0 0 0 0 0 0 0 0 0 0 0 0 0 0 0 0 0 0 0 0 0 0 0 0 0 0 0 0 0 0 0 0 0 0 0 0
0 0 0 0 0 0 0 0 0 0 0 0 0 0 0 0 0 0 0 0 0 0 0 0 0 0 0 0 0 0 0 0 0 0 0 0 0 0 0 0 0 0 0 0 0 0 0 0 0
0 0 0 0 0 0 0 0 0 0 0 0 0 0 0 0 0 0 0 0 0 0 0 0 0 0 0 0 0 0 0 0 0 0 0 0 0 0 0 0 0 0 0 0 0 0 0 0 0
0 0 0 0 0 0 0 0 0 0 0 0 0 0 0 0 0 0 0 0 0 0 0 0 0 0 0 0 0 0 0 0 0 0 0 0 0 0 0 0 0 0 0 0 0 0 0 0 0
Wind_Speed_500mb
15 10 5 10 5 5 10 9 12 9 7 11 18 16 16 22 8 4 28 27 25 15 10 3 7 11 15 16 19 25 28 29 31 34 38 40 42 46 48 51 54 56 57 58 61 63 65 65 61
17 7 7 16 5 9 3 12 13 13 21 22 15 8 5 10 8 21 27 28 21 17 15 5 6 9 11 15 20 24 25 27 29 32 34 38 41 43 46 51 54 57 58 60 64 67 71 73 71
15 14 8 6 10 10 6 11 13 25 25 17 10 9 6 12 10 28 20 28 23 18 12 8 5 8 11 15 16 18 21 25 25 28 33 36 40 42 44 48 52 57 61 66 69 71 71 71 67
12 5 12 4 18 9 9 7 43 26 11 12 13 15 11 17 26 21 31 28 23 18 13 8 3 7 10 10 12 16 19 20 23 28 31 33 37 42 47 50 55 60 65 67 68 69 72 70 66
16 12 9 11 16 9 5 5 30 19 22 21 17 13 12 27 28 26 32 27 24 19 13 9 4 5 6 8 11 16 17 19 22 26 31 36 41 44 47 51 56 61 63 65 69 70 71 74 74
7 14 9 12 8 9 3 14 23 27 27 30 16 16 13 18 29 31 31 28 24 21 14 9 5 1 1 5 11 13 15 18 23 27 32 37 42 45 50 55 61 65 67 70 71 68 73 78 79
10 7 15 16 11 8 11 20 26 26 24 26 8 10 16 22 33 35 33 31 27 22 17 10 8 6 1 6 8 12 16 20 23 29 33 38 43 48 52 56 61 65 67 72 73 74 77 81 78
13 9 19 10 9 2 20 25 22 28 17 19 18 10 13 32 41 38 36 33 29 23 18 13 12 6 4 4 9 13 17 19 24 28 32 39 44 48 53 58 65 69 73 77 78 78 80 81 78
13 6 10 18 6 5 26 18 11 15 18 16 21 4 8 23 44 44 42 38 33 28 22 19 13 8 5 6 9 13 15 18 22 28 34 40 46 51 56 60 65 69 73 78 82 81 82 85 87
13 8 13 15 11 4 28 27 20 5 15 14 22 23 20 32 40 48 47 43 37 32 27 20 16 11 7 8 10 14 16 19 24 29 35 42 49 52 56 61 66 71 76 80 80 79 82 86 89
11 11 12 11 20 10 22 28 25 15 15 40 43 41 37 42 40 46 44 41 38 31 28 26 20 14 11 11 12 15 17 20 24 30 35 42 48 53 58 63 67 73 79 82 83 84 85 87 90
6 2 6 9 7 6 6 8 23 38 16 3 47 46 45 52 49 48 49 43 37 39 36 30 25 18 15 13 14 15 17 20 25 30 36 43 50 55 60 65 69 74 79 81 83 85 86 87 88
8 7 7 8 4 2 8 14 20 30 44 38 22 36 50 52 51 47 44 42 45 46 40 31 27 22 18 15 14 16 18 21 25 30 36 43 50 56 61 64 68 72 78 81 85 84 86 89 91
8 7 9 4 8 5 6 12 7 23 43 45 36 34 45 52 54 48 49 48 52 50 44 34 30 26 21 19 16 17 18 22 25 30 35 42 51 56 60 63 67 71 76 80 81 82 84 87 88
6 6 12 19 15 4 8 13 28 46 13 45 45 44 49 52 51 57 54 55 60 52 47 41 35 31 26 22 18 18 18 21 23 28 35 42 50 54 58 62 66 71 76 78 80 81 81 84 85
7 3 6 11 19 8 8 13 13 34 41 43 50 48 53 56 57 58 56 57 59 53 53 45 39 35 30 25 20 19 17 21 23 26 33 40 48 52 56 60 64 69 74 75 78 82 84 83 84
8 8 13 10 23 10 13 14 5 11 44 41 47 53 56 58 60 61 60 60 63 57 56 50 45 39 34 28 23 20 19 21 22 25 31 38 45 49 53 58 63 68 71 73 75 79 80 82 85
11 10 10 6 12 12 12 31 29 30 32 47 49 54 59 64 66 62 62 64 61 58 58 53 49 45 39 32 26 22 20 20 20 23 29 37 43 47 50 54 60 65 69 72 73 76 76 73 80
7 8 11 8 6 4 17 31 33 40 43 47 54 56 56 63 56 58 64 65 60 62 61 58 54 49 44 36 29 24 20 19 22 23 27 34 41 44 48 53 58 62 66 68 69 73 76 72 79
4 8 10 5 8 5 12 30 37 35 36 51 49 57 56 47 55 59 68 69 70 70 66 61 57 53 46 39 33 26 20 20 20 21 25 31 37 41 45 50 55 60 65 66 66 69 72 67 72
9 10 8 4 7 8 12 16 10 17 28 49 58 51 61 61 62 67 74 74 76 76 71 66 61 56 48 44 38 27 22 21 19 18 23 29 34 38 41 48 53 58 61 63 62 63 64 65 62
9 7 6 5 4 7 2 11 11 16 13 10 27 32 38 51 55 69 75 77 81 77 71 68 65 59 53 50 39 31 25 22 17 18 21 26 31 34 38 44 49 54 57 59 59 57 55 58 57
4 5 9 3 3 5 4 2 14 8 8 2 7 12 27 38 49 66 75 76 76 72 72 70 65 62 58 49 41 35 29 23 18 17 19 24 29 33 36 41 46 51 55 55 55 55 51 50 53
18 9 7 3 2 2 13 13 9 8 6 9 6 1 10 28 37 45 61 67 70 67 66 68 67 66 61 51 44 37 32 24 20 16 17 22 27 30 33 38 43 48 54 55 54 51 46 47 48
6 9 5 7 3 11 9 2 17 19 17 7 16 18 13 25 35 47 56 65 68 67 68 71 71 70 63 54 47 40 34 26 21 16 15 19 24 27 30 35 40 46 52 52 51 49 45 44 47
13 12 10 14 8 5 7 12 13 16 2 12 17 19 23 25 32 42 53 59 63 64 66 70 72 72 65 57 51 44 37 29 21 17 14 17 22 25 29 32 37 43 48 49 48 47 44 41 43
10 7 2 11 3 5 10 14 17 10 14 16 20 27 25 29 31 38 46 53 57 59 63 66 69 70 66 57 52 46 39 30 22 17 15 16 19 22 26 30 35 41 46 46 46 46 44 39 41
1 4 8 4 4 10 8 4 12 5 8 9 10 19 24 28 30 34 41 49 51 53 56 60 63 66 63 61 55 49 41 32 24 18 15 15 17 19 23 27 32 38 43 43 44 44 43 39 39
5 4 2 4 6 9 2 11 14 15 9 11 10 18 25 28 29 30 36 41 45 50 56 60 62 66 66 67 60 54 45 35 27 20 16 13 14 16 21 25 30 35 40 42 43 43 41 38 36
2 12 13 9 10 7 6 12 4 12 10 5 12 5 12 17 26 28 32 37 44 51 55 59 61 65 66 67 63 58 48 39 30 22 17 13 11 12 17 23 28 32 37 41 42 41 38 37 35
Wind_Direction_500mb
160 154 119 264 281 189 256 134 107 104 94 65 39 48 74 52 11 143 164 169 173 165 112 104 51 60 55 53 45 43 42 36 29 19 13 10 8 7 5 3 0 359 357 355 352 349 344 341 337
173 164 218 266 257 256 325 100 142 133 87 102 83 62 82 81 73 144 152 155 163 158 159 145 87 67 54 48 42 41 38 32 24 15 9 7 6 3 2 1 360 358 356 354 352 349 347 342 338
180 186 269 214 228 270 52 123 145 95 121 135 108 64 66 106 133 140 182 164 165 159 189 154 121 71 49 41 39 38 34 26 16 7 5 4 2 360 359 359 359 358 356 355 353 351 347 342 338
157 219 259 272 262 73 45 147 111 119 133 163 112 120 120 128 153 199 167 163 167 168 184 160 109 53 43 39 31 31 27 16 7 2 0 359 357 358 359 360 359 358 358 357 353 350 347 343 338
188 256 241 220 267 93 65 136 132 152 160 182 175 144 132 161 189 188 167 167 182 185 194 167 137 62 29 21 22 22 12 4 360 357 358 358 357 357 358 359 359 358 357 355 354 351 348 345 342
235 249 263 255 201 95 111 149 158 182 163 157 181 141 138 206 191 174 172 175 189 196 199 184 162 150 336 18 18 8 357 357 355 354 357 357 356 356 358 359 358 356 356 354 353 350 348 346 343
234 248 267 315 332 125 172 174 178 194 157 159 155 176 153 196 184 182 179 188 197 199 203 203 197 215 312 18 1 353 350 352 347 353 354 354 355 356 357 357 356 355 354 353 352 350 348 346 342
263 263 270 283 286 214 146 168 196 201 176 159 170 222 169 201 191 187 188 198 202 205 209 206 222 247 314 0 345 343 342 341 347 346 350 354 355 355 356 355 355 354 353 350 349 350 348 344 341
232 283 250 253 175 105 139 175 200 211 144 167 190 257 146 193 198 188 193 202 206 210 211 212 221 235 271 311 328 325 327 334 338 344 350 353 355 356 355 355 353 353 350 349 349 349 349 345 342
209 211 273 13 61 120 157 198 177 156 200 197 191 218 177 201 200 195 199 207 210 211 213 217 222 232 254 283 302 310 318 329 336 344 351 354 355 354 354 354 353 352 350 349 347 348 349 346 343
217 245 5 57 40 18 159 203 171 188 221 215 205 209 192 206 204 202 207 216 218 214 216 221 223 228 245 267 289 299 316 328 333 343 350 353 353 353 354 354 353 352 351 349 348 349 350 347 344
276 359 11 30 43 357 171 194 213 203 228 340 218 218 210 211 212 208 210 211 215 217 220 219 222 224 237 257 274 298 314 323 332 341 349 352 353 353 354 355 354 353 351 348 349 350 348 346 344
230 133 62 60 40 241 311 253 245 236 239 248 215 214 212 218 218 216 214 207 218 221 223 218 222 225 234 250 273 293 310 322 331 341 349 351 352 354 354 354 353 353 350 349 350 350 348 347 344
18 39 116 154 188 196 220 250 209 250 235 226 209 201 217 222 218 214 209 206 216 225 223 221 221 226 233 247 266 289 305 317 330 338 348 350 352 353 353 353 354 353 351 351 350 349 350 347 343
132 251 183 192 191 194 197 255 231 234 195 210 214 212 219 223 217 219 216 210 219 224 225 222 221 225 233 244 261 279 300 313 324 338 346 350 351 352 352 353 353 353 352 351 350 349 351 347 345
221 205 238 100 143 149 185 264 195 234 204 212 216 223 218 218 220 220 220 214 220 222 223 224 221 225 232 241 255 276 297 309 323 336 345 349 351 351 352 353 353 354 353 351 351 353 353 349 348
221 255 202 180 188 124 200 275 156 165 197 216 223 223 220 221 218 215 216 219 218 221 221 222 222 224 230 238 250 269 289 304 320 333 344 347 350 350 352 353 355 355 354 352 353 354 355 350 348
203 218 240 243 179 207 222 257 269 255 225 227 231 232 224 220 219 213 213 217 219 220 222 223 220 222 227 234 245 262 279 295 313 330 341 345 348 349 352 353 356 355 356 353 355 354 356 354 349
349 339 334 95 29 250 238 259 268 264 232 221 223 228 234 225 217 215 212 214 215 218 220 222 221 221 225 231 239 253 273 296 312 327 336 343 345 347 350 355 357 358 358 355 357 354 354 357 355
218 275 270 73 131 180 286 283 267 259 251 238 226 222 228 232 212 210 211 211 214 217 219 221 223 223 225 228 234 244 261 281 302 313 326 341 342 345 350 355 357 360 358 357 0 356 352 358 5
217 217 245 229 208 214 296 282 251 256 236 242 242 241 229 217 212 207 209 212 214 217 218 221 223 223 222 226 233 236 247 269 282 297 327 335 339 345 350 356 358 1 358 359 2 358 358 357 360
222 339 95 88 36 267 241 285 263 258 264 218 232 232 230 214 221 212 210 211 216 221 221 222 222 222 222 226 229 234 243 256 283 303 314 329 336 343 352 357 359 1 359 1 4 360 2 2 351
159 112 107 105 237 335 212 338 265 160 258 54 68 230 232 225 218 212 211 218 220 223 221 222 221 223 225 226 226 233 240 251 267 281 304 325 337 343 352 357 360 1 359 2 4 2 2 1 357
146 104 87 92 45 359 210 166 270 217 190 124 132 234 210 209 210 214 215 218 219 222 223 221 221 223 227 224 226 232 240 246 259 277 304 325 335 341 352 357 1 2 360 2 6 4 2 359 0
223 135 355 343 16 223 51 9 252 287 296 176 180 180 175 196 190 195 203 211 217 220 221 220 221 223 226 223 223 229 239 246 260 273 298 322 332 340 350 359 3 3 360 2 6 4 4 1 2
197 168 169 210 202 242 69 228 248 219 87 110 151 166 198 189 190 202 207 214 218 222 221 221 222 224 225 223 221 225 233 240 253 268 291 316 329 340 352 358 3 5 359 1 6 4 5 0 3
175 189 135 96 66 59 223 265 299 295 207 188 201 201 199 212 213 206 205 214 219 220 221 224 223 225 227 222 223 226 230 234 245 259 284 309 325 340 349 359 4 6 359 1 6 4 6 2 5
152 201 86 348 212 256 269 251 238 197 180 195 215 211 192 198 208 205 206 209 215 220 223 224 226 228 225 223 222 224 229 233 239 251 270 300 320 341 350 358 4 8 1 0 6 6 8 3 9
163 198 247 148 178 197 245 249 225 203 185 180 119 168 185 202 205 208 210 211 214 218 219 222 224 224 220 221 220 221 224 228 234 242 258 287 312 338 349 356 3 8 3 358 7 9 9 7 11
274 199 167 146 231 232 138 266 37 110 112 92 98 155 191 218 228 231 222 216 216 217 221 221 224 226 223 220 218 218 218 222 227 234 246 270 300 334 348 354 360 9 4 358 5 10 11 9 12
Wind_Speed_850mb
15 10 5 10 5 5 10 9 12 9 7 11 18 16 16 22 8 4 28 27 25 15 10 3 7 11 15 16 19 25 28 29 31 34 38 40 42 46 48 51 54 56 57 58 61 63 65 65 61
17 7 7 16 5 9 3 12 13 13 21 22 15 8 5 10 8 21 27 28 21 17 15 5 6 9 11 15 20 24 25 27 29 32 34 38 41 43 46 51 54 57 58 60 64 67 71 73 71
15 14 8 6 10 10 6 11 13 25 25 17 10 9 6 12 10 28 20 28 23 18 12 8 5 8 11 15 16 18 21 25 25 28 33 36 40 42 44 48 52 57 61 66 69 71 71 71 67
12 5 12 4 18 9 9 7 43 26 11 12 13 15 11 17 26 21 31 28 23 18 13 8 3 7 10 10 12 16 19 20 23 28 31 33 37 42 47 50 55 60 65 67 68 69 72 70 66
16 12 9 11 16 9 5 5 30 19 22 21 17 13 12 27 28 26 32 27 24 19 13 9 4 5 6 8 11 16 17 19 22 26 31 36 41 44 47 51 56 61 63 65 69 70 71 74 74
7 14 9 12 8 9 3 14 23 27 27 30 16 16 13 18 29 31 31 28 24 21 14 9 5 1 1 5 11 13 15 18 23 27 32 37 42 45 50 55 61 65 67 70 71 68 73 78 79
10 7 15 16 11 8 11 20 26 26 24 26 8 10 16 22 33 35 33 31 27 22 17 10 8 6 1 6 8 12 16 20 23 29 33 38 43 48 52 56 61 65 67 72 73 74 77 81 78
13 9 19 10 9 2 20 25 22 28 17 19 18 10 13 32 41 38 36 33 29 23 18 13 12 6 4 4 9 13 17 19 24 28 32 39 44 48 53 58 65 69 73 77 78 78 80 81 78
13 6 10 18 6 5 26 18 11 15 18 16 21 4 8 23 44 44 42 38 33 28 22 19 13 8 5 6 9 13 15 18 22 28 34 40 46 51 56 60 65 69 73 78 82 81 82 85 87
13 8 13 15 11 4 28 27 20 5 15 14 22 23 20 32 40 48 47 43 37 32 27 20 16 11 7 8 10 14 16 19 24 29 35 42 49 52 56 61 66 71 76 80 80 79 82 86 89
11 11 12 11 20 10 22 28 25 15 15 40 43 41 37 42 40 46 44 41 38 31 28 26 20 14 11 11 12 15 17 20 24 30 35 42 48 53 58 63 67 73 79 82 83 84 85 87 90
6 2 6 9 7 6 6 8 23 38 16 3 47 46 45 52 49 48 49 43 37 39 36 30 25 18 15 13 14 15 17 20 25 30 36 43 50 55 60 65 69 74 79 81 83 85 86 87 88
8 7 7 8 4 2 8 14 20 30 44 38 22 36 50 52 51 47 44 42 45 46 40 31 27 22 18 15 14 16 18 21 25 30 36 43 50 56 61 64 68 72 78 81 85 84 86 89 91
8 7 9 4 8 5 6 12 7 23 43 45 36 34 45 52 54 48 49 48 52 50 44 34 30 26 21 19 16 17 18 22 25 30 35 42 51 56 60 63 67 71 76 80 81 82 84 87 88
6 6 12 19 15 4 8 13 28 46 13 45 45 44 49 52 51 57 54 55 60 52 47 41 35 31 26 22 18 18 18 21 23 28 35 42 50 54 58 62 66 71 76 78 80 81 81 84 85
7 3 6 11 19 8 8 13 13 34 41 43 50 48 53 56 57 58 56 57 59 53 53 45 39 35 30 25 20 19 17 21 23 26 33 40 48 52 56 60 64 69 74 75 78 82 84 83 84
8 8 13 10 23 10 13 14 5 11 44 41 47 53 56 58 60 61 60 60 63 57 56 50 45 39 34 28 23 20 19 21 22 25 31 38 45 49 53 58 63 68 71 73 75 79 80 82 85
11 10 10 6 12 12 12 31 29 30 32 47 49 54 59 64 66 62 62 64 61 58 58 53 49 45 39 32 26 22 20 20 20 23 29 37 43 47 50 54 60 65 69 72 73 76 76 73 80
7 8 11 8 6 4 17 31 33 40 43 47 54 56 56 63 56 58 64 65 60 62 61 58 54 49 44 36 29 24 20 19 22 23 27 34 41 44 48 53 58 62 66 68 69 73 76 72 79
4 8 10 5 8 5 12 30 37 35 36 51 49 57 56 47 55 59 68 69 70 70 66 61 57 53 46 39 33 26 20 20 20 21 25 31 37 41 45 50 55 60 65 66 66 69 72 67 72
9 10 8 4 7 8 12 16 10 17 28 49 58 51 61 61 62 67 74 74 76 76 71 66 61 56 48 44 38 27 22 21 19 18 23 29 34 38 41 48 53 58 61 63 62 63 64 65 62
9 7 6 5 4 7 2 11 11 16 13 10 27 32 38 51 55 69 75 77 81 77 71 68 65 59 53 50 39 31 25 22 17 18 21 26 31 34 38 44 49 54 57 59 59 57 55 58 57
4 5 9 3 3 5 4 2 14 8 8 2 7 12 27 38 49 66 75 76 76 72 72 70 65 62 58 49 41 35 29 23 18 17 19 24 29 33 36 41 46 51 55 55 55 55 51 50 53
18 9 7 3 2 2 13 13 9 8 6 9 6 1 10 28 37 45 61 67 70 67 66 68 67 66 61 51 44 37 32 24 20 16 17 22 27 30 33 38 43 48 54 55 54 51 46 47 48
6 9 5 7 3 11 9 2 17 19 17 7 16 18 13 25 35 47 56 65 68 67 68 71 71 70 63 54 47 40 34 26 21 16 15 19 24 27 30 35 40 46 52 52 51 49 45 44 47
13 12 10 14 8 5 7 12 13 16 2 12 17 19 23 25 32 42 53 59 63 64 66 70 72 72 65 57 51 44 37 29 21 17 14 17 22 25 29 32 37 43 48 49 48 47 44 41 43
10 7 2 11 3 5 10 14 17 10 14 16 20 27 25 29 31 38 46 53 57 59 63 66 69 70 66 57 52 46 39 30 22 17 15 16 19 22 26 30 35 41 46 46 46 46 44 39 41
1 4 8 4 4 10 8 4 12 5 8 9 10 19 24 28 30 34 41 49 51 53 56 60 63 66 63 61 55 49 41 32 24 18 15 15 17 19 23 27 32 38 43 43 44 44 43 39 39
5 4 2 4 6 9 2 11 14 15 9 11 10 18 25 28 29 30 36 41 45 50 56 60 62 66 66 67 60 54 45 35 27 20 16 13 14 16 21 25 30 35 40 42 43 43 41 38 36
2 12 13 9 10 7 6 12 4 12 10 5 12 5 12 17 26 28 32 37 44 51 55 59 61 65 66 67 63 58 48 39 30 22 17 13 11 12 17 23 28 32 37 41 42 41 38 37 35
Wind_Direction_850mb
160 154 119 264 281 189 256 134 107 104 94 65 39 48 74 52 11 143 164 169 173 165 112 104 51 60 55 53 45 43 42 36 29 19 13 10 8 7 5 3 0 359 357 355 352 349 344 341 337
173 164 218 266 257 256 325 100 142 133 87 102 83 62 82 81 73 144 152 155 163 158 159 145 87 67 54 48 42 41 38 32 24 15 9 7 6 3 2 1 360 358 356 354 352 349 347 342 338
180 186 269 214 228 270 52 123 145 95 121 135 108 64 66 106 133 140 182 164 165 159 189 154 121 71 49 41 39 38 34 26 16 7 5 4 2 360 359 359 359 358 356 355 353 351 347 342 338
157 219 259 272 262 73 45 147 111 119 133 163 112 120 120 128 153 199 167 163 167 168 184 160 109 53 43 39 31 31 27 16 7 2 0 359 357 358 359 360 359 358 358 357 353 350 347 343 338
188 256 241 220 267 93 65 136 132 152 160 182 175 144 132 161 189 188 167 167 182 185 194 167 137 62 29 21 22 22 12 4 360 357 358 358 357 357 358 359 359 358 357 355 354 351 348 345 342
235 249 263 255 201 95 111 149 158 182 163 157 181 141 138 206 191 174 172 175 189 196 199 184 162 150 336 18 18 8 357 357 355 354 357 357 356 356 358 359 358 356 356 354 353 350 348 346 343
234 248 267 315 332 125 172 174 178 194 157 159 155 176 153 196 184 182 179 188 197 199 203 203 197 215 312 18 1 353 350 352 347 353 354 354 355 356 357 357 356 355 354 353 352 350 348 346 342
263 263 270 283 286 214 146 168 196 201 176 159 170 222 169 201 191 187 188 198 202 205 209 206 222 247 314 0 345 343 342 341 347 346 350 354 355 355 356 355 355 354 353 350 349 350 348 344 341
232 283 250 253 175 105 139 175 200 211 144 167 190 257 146 193 198 188 193 202 206 210 211 212 221 235 271 311 328 325 327 334 338 344 350 353 355 356 355 355 353 353 350 349 349 349 349 345 342
209 211 273 13 61 120 157 198 177 156 200 197 191 218 177 201 200 195 199 207 210 211 213 217 222 232 254 283 302 310 318 329 336 344 351 354 355 354 354 354 353 352 350 349 347 348 349 346 343
217 245 5 57 40 18 159 203 171 188 221 215 205 209 192 206 204 202 207 216 218 214 216 221 223 228 245 267 289 299 316 328 333 343 350 353 353 353 354 354 353 352 351 349 348 349 350 347 344
276 359 11 30 43 357 171 194 213 203 228 340 218 218 210 211 212 208 210 211 215 217 220 219 222 224 237 257 274 298 314 323 332 341 349 352 353 353 354 355 354 353 351 348 349 350 348 346 344
230 133 62 60 40 241 311 253 245 236 239 248 215 214 212 218 218 216 214 207 218 221 223 218 222 225 234 250 273 293 310 322 331 341 349 351 352 354 354 354 353 353 350 349 350 350 348 347 344
18 39 116 154 188 196 220 250 209 250 235 226 209 201 217 222 218 214 209 206 216 225 223 221 221 226 233 247 266 289 305 317 330 338 348 350 352 353 353 353 354 353 351 351 350 349 350 347 343
132 251 183 192 191 194 197 255 231 234 195 210 214 212 219 223 217 219 216 210 219 224 225 222 221 225 233 244 261 279 300 313 324 338 346 350 351 352 352 353 353 353 352 351 350 349 351 347 345
221 205 238 100 143 149 185 264 195 234 204 212 216 223 218 218 220 220 220 214 220 222 223 224 221 225 232 241 255 276 297 309 323 336 345 349 351 351 352 353 353 354 353 351 351 353 353 349 348
221 255 202 180 188 124 200 275 156 165 197 216 223 223 220 221 218 215 216 219 218 221 221 222 222 224 230 238 250 269 289 304 320 333 344 347 350 350 352 353 355 355 354 352 353 354 355 350 348
203 218 240 243 179 207 222 257 269 255 225 227 231 232 224 220 219 213 213 217 219 220 222 223 220 222 227 234 245 262 279 295 313 330 341 345 348 349 352 353 356 355 356 353 355 354 356 354 349
349 339 334 95 29 250 238 259 268 264 232 221 223 228 234 225 217 215 212 214 215 218 220 222 221 221 225 231 239 253 273 296 312 327 336 343 345 347 350 355 357 358 358 355 357 354 354 357 355
218 275 270 73 131 180 286 283 267 259 251 238 226 222 228 232 212 210 211 211 214 217 219 221 223 223 225 228 234 244 261 281 302 313 326 341 342 345 350 355 357 360 358 357 0 356 352 358 5
217 217 245 229 208 214 296 282 251 256 236 242 242 241 229 217 212 207 209 212 214 217 218 221 223 223 222 226 233 236 247 269 282 297 327 335 339 345 350 356 358 1 358 359 2 358 358 357 360
222 339 95 88 36 267 241 285 263 258 264 218 232 232 230 214 221 212 210 211 216 221 221 222 222 222 222 226 229 234 243 256 283 303 314 329 336 343 352 357 359 1 359 1 4 360 2 2 351
159 112 107 105 237 335 212 338 265 160 258 54 68 230 232 225 218 212 211 218 220 223 221 222 221 223 225 226 226 233 240 251 267 281 304 325 337 343 352 357 360 1 359 2 4 2 2 1 357
146 104 87 92 45 359 210 166 270 217 190 124 132 234 210 209 210 214 215 218 219 222 223 221 221 223 227 224 226 232 240 246 259 277 304 325 335 341 352 357 1 2 360 2 6 4 2 359 0
223 135 355 343 16 223 51 9 252 287 296 176 180 180 175 196 190 195 203 211 217 220 221 220 221 223 226 223 223 229 239 246 260 273 298 322 332 340 350 359 3 3 360 2 6 4 4 1 2
197 168 169 210 202 242 69 228 248 219 87 110 151 166 198 189 190 202 207 214 218 222 221 221 222 224 225 223 221 225 233 240 253 268 291 316 329 340 352 358 3 5 359 1 6 4 5 0 3
175 189 135 96 66 59 223 265 299 295 207 188 201 201 199 212 213 206 205 214 219 220 221 224 223 225 227 222 223 226 230 234 245 259 284 309 325 340 349 359 4 6 359 1 6 4 6 2 5
152 201 86 348 212 256 269 251 238 197 180 195 215 211 192 198 208 205 206 209 215 220 223 224 226 228 225 223 222 224 229 233 239 251 270 300 320 341 350 358 4 8 1 0 6 6 8 3 9
163 198 247 148 178 197 245 249 225 203 185 180 119 168 185 202 205 208 210 211 214 218 219 222 224 224 220 221 220 221 224 228 234 242 258 287 312 338 349 356 3 8 3 358 7 9 9 7 11
274 199 167 146 231 232 138 266 37 110 112 92 98 155 191 218 228 231 222 216 216 217 221 221 224 226 223 220 218 218 218 222 227 234 246 270 300 334 348 354 360 9 4 358 5 10 11 9 12